Location: *
(39.6167°S, 171.5333°W)
Time: 22:26:34
(UTC+00:00)

SL-16 R/B - Pass Details

Date: 13 May 2021
Orbit: 842 x 848 km, 71.0° (Epoch: 15 June)

Event Time Altitude Azimuth Distance (km) Brightness Sun altitude
Exits shadow 15:34:10 18° 170° (S) 1,986 4.2 -32.4°
Maximum altitude 15:37:21 29° 123° (ESE) 1,521 3.9 -31.8°
Drops below altitude 10° 15:42:15 10° 64° (ENE) 2,477 5.3 -30.8°
Sets 15:45:00 0° 52° (NE) 3,406 6.1 -30.3°
